Skip Page Navigation
NASA JPL Caltech
NASA Logo - Jet Propulsion Laboratory + View the NASA Portal
+ Center for Near-Earth Object Studies
JPL Home Earth Solar System Stars & Galaxies Technology
JPL Solar System Dynamics
BODIES ORBITS EPHEMERIDES TOOLS PHYSICAL DATA DISCOVERY FAQ SITE MAP
JPL Small-Body Database Browser
Search: [ help ]  
1976 Kaverin (1970 GC)
Classification: Main-belt Asteroid          SPK-ID: 2001976
Ephemeris | Orbit Diagram | Orbital Elements | Mission Design | Physical Parameters | Discovery Circumstances ]

[ show orbit diagram ]
Orbital Elements at Epoch 2459396.5 (2021-Jul-01.0) TDB
Reference: JPL 49 (heliocentric ecliptic J2000)
 Element Value Uncertainty (1-sigma)   Units 
e .07428212606463713 2.7785e-08  
a 2.38117302452564 5.2789e-09 au
q 2.204294429736113 6.6836e-08 au
i 2.371646444115087 2.7117e-06 deg
node 90.91782775373396 7.4552e-05 deg
peri 119.0674966601254 7.6931e-05 deg
M 336.1672636375758 1.9457e-05 deg
tp 2459485.349761397671
(2021-Sep-27.84976140)
7.2581e-05 TDB
period 1342.09994256438
3.67
4.463e-06
1.222e-08
d
yr
n .2682363575041513 8.9199e-10 deg/d
Q 2.558051619315167 5.671e-09 au
  Orbit Determination Parameters
   # obs. used (total)      3246  
   data-arc span      22721 days (62.21 yr)  
   first obs. used      1959-04-16  
   last obs. used      2021-06-30  
   planetary ephem.      DE441  
   SB-pert. ephem.      SB441-N16  
   condition code      0  
   norm. resid. RMS      .45227  
   source      ORB  
   producer      Otto Matic  
   solution date      2021-Jul-08 13:00:48  

Additional Information
 Earth MOID = 1.20024 au 
 Jupiter MOID = 2.40001 au 
 T_jup = 3.533 
[ show covariance matrix ]

Ephemeris | Orbit Diagram | Orbital Elements | Mission Design | Physical Parameters | Discovery Circumstances ]

Physical Parameter Table
Parameter Symbol Value Units Sigma Reference Notes
absolute magnitude H 13.30   n/a MPO614063  
diameter diameter 3.670 km 0.217 urn:nasa:pds:neowise_diameters_albedos::2.0[mainbelt] (http://adsabs.harvard.edu/abs/2011ApJ...741...68M)  
geometric albedo albedo 0.522   0.097 urn:nasa:pds:neowise_diameters_albedos::2.0[mainbelt] (http://adsabs.harvard.edu/abs/2011ApJ...741...68M)  

1976 Kaverin (1970 GC)          Discovered 1970-Apr-01 by Chernykh, L. at Nauchnyj
Reference: DISCOVERY.DBLast Updated: 2003-08-29

Alternate Designations
 1970 GC = 1959 GN = 1966 DL = 1974 OV = 9503 P-L 
Ephemeris | Orbit Diagram | Orbital Elements | Mission Design | Physical Parameters | Discovery Circumstances ]
ABOUT SSD CREDITS/AWARDS PRIVACY/COPYRIGHT GLOSSARY LINKS
FirstGov 2021-Jul-24 02:49 UT
(server date/time)  
NASA Home Page
Site Manager:   Ryan S. Park
Webmaster  Alan B. Chamberlin